Weather History for Glasgow, United Kingdom

Change the Weather History Date:

Friday, October 10, 2014

  Actual Average Record
Temperature  
Mean Temperature 48 °F -  
Max Temperature 57 °F 51 °F 62 °F (2005)
Min Temperature 39 °F 40 °F 26 °F (2012)
Degree Days  
Heating Degree Days 17    
Moisture  
Dew Point 46 °F    
Average Humidity 92    
Maximum Humidity 100    
Minimum Humidity 67    
Precipitation  
Precipitation 0.00 in - - ()
Sea Level Pressure  
Sea Level Pressure 29.60 in    
Wind  
Wind Speed 3 mph ()    
Max Wind Speed 13 mph    
Max Gust Speed -    
Visibility 4.6 miles    
Events Fog , Rain    
Averages and records for this station are not official NWS values.
T = Trace of Precipitation, MM = Missing Value Source: Averaged Metar Reports

Daily Weather History Graph

Daily Weather History Graph

Search for Another Location

Airport:

Trip Planner

Search our weather history database for the weather conditions in past years. The results will help you decide how hot, cold, wet, or windy it might be!

Date:

Astronomy

Oct. 10, 2014 Rise Set
Actual Time 7:38 AM BST 6:30 PM BST
Civil Twilight 7:01 AM BST 7:07 PM BST
Nautical Twilight 6:18 AM BST 7:50 PM BST
Astronomical Twilight 5:34 AM BST 8:33 PM BST
Moon 7:34 PM BST (10/10) 10:06 AM BST (10/10)
Length of Visible Light 12h 06m
Length of Day
10h 51m
Waning Gibbous, 95% of the Moon is Illuminated
Oct 10
Waning Gibbous
Oct 15
Last Quarter
Oct 23
New
Oct 31
First Quarter
Nov 6
Full

Hourly Weather History & Observations

Time (BST) Temp. Windchill Dew Point Humidity Pressure Visibility Wind Dir Wind Speed Gust Speed Precip Events Conditions
12:20 AM 46.4 °F - 46.4 °F 100% 29.44 in 3.1 mi ENE 2.3 mph - N/A   Partly Cloudy
12:50 AM 48.2 °F - 46.4 °F 93% 29.47 in 5.0 mi NNE 2.3 mph - N/A Rain Light Rain
1:20 AM 48.2 °F - 48.2 °F 100% 29.47 in 5.0 mi Calm Calm - N/A Rain Light Rain
1:50 AM 48.2 °F - 48.2 °F 100% 29.47 in 3.1 mi SW 3.5 mph - N/A Rain Rain
2:20 AM 48.2 °F - 48.2 °F 100% 29.47 in 3.1 mi SSW 3.5 mph - N/A   Light Drizzle
2:50 AM 48.2 °F - 48.2 °F 100% 29.50 in 3.1 mi WSW 1.2 mph - N/A   Mostly Cloudy
3:20 AM 48.2 °F - 48.2 °F 100% 29.50 in 3.1 mi Calm Calm - N/A   Mostly Cloudy
3:50 AM 46.4 °F - 46.4 °F 100% 29.50 in 0.1 mi NNE 1.2 mph - N/A Fog Fog
4:20 AM 44.6 °F - 44.6 °F 100% 29.50 in 0.2 mi East 1.2 mph - N/A Fog Fog
4:50 AM 46.4 °F - 46.4 °F 100% 29.50 in 0.2 mi NNE 1.2 mph - N/A Fog Fog
5:20 AM 44.6 °F - 44.6 °F 100% 29.53 in 0.1 mi WNW 1.2 mph - N/A Fog Fog
5:50 AM 44.6 °F - 44.6 °F 100% 29.53 in 0.2 mi Variable 2.3 mph - N/A Fog Fog
6:20 AM 42.8 °F - 42.8 °F 100% 29.53 in 0.6 mi Variable 2.3 mph - N/A Fog Patches of Fog
6:50 AM 42.8 °F - 42.8 °F 100% 29.53 in 0.1 mi Calm Calm - N/A Fog Shallow Fog
7:20 AM 44.6 °F - 44.6 °F 100% 29.56 in 1.4 mi Variable 2.3 mph - N/A   Mostly Cloudy
7:50 AM 46.4 °F - 46.4 °F 100% 29.56 in 2.2 mi North 2.3 mph - N/A   Mostly Cloudy
8:20 AM 46.4 °F - 46.4 °F 100% 29.56 in - NNE 2.3 mph - N/A   Mostly Cloudy
8:50 AM 48.2 °F - 48.2 °F 100% 29.59 in 3.1 mi Variable 3.5 mph - N/A   Overcast
9:20 AM 48.2 °F - 48.2 °F 100% 29.59 in 6.2 mi Variable 2.3 mph - N/A Rain Light Rain
9:50 AM 50.0 °F - 50.0 °F 100% 29.59 in 5.6 mi Variable 1.2 mph - N/A Rain Light Rain
10:20 AM 50.0 °F - 46.4 °F 87% 29.62 in 6.2 mi Variable 3.5 mph - N/A Rain Light Rain
10:50 AM 50.0 °F - 46.4 °F 87% 29.62 in 4.3 mi SW 5.8 mph - N/A Rain Rain
11:20 AM 51.8 °F - 48.2 °F 88% 29.62 in 6.2 mi SSW 6.9 mph - N/A Rain Light Rain
11:50 AM 53.6 °F - 50.0 °F 88% 29.62 in 6.2 mi South 5.8 mph - N/A Rain Light Rain
12:20 PM 55.4 °F - 50.0 °F 82% 29.62 in 6.2 mi South 10.4 mph - N/A   Scattered Clouds
12:50 PM 55.4 °F - 48.2 °F 77% 29.62 in 6.2 mi SSW 11.5 mph - N/A   Scattered Clouds
1:20 PM 57.2 °F - 48.2 °F 72% 29.62 in 6.2 mi SSW 11.5 mph - N/A   Partly Cloudy
1:50 PM 57.2 °F - 46.4 °F 67% 29.62 in 6.2 mi SW 10.4 mph - N/A   Partly Cloudy
2:20 PM 55.4 °F - 46.4 °F 72% 29.62 in 6.2 mi SW 10.4 mph - N/A   Partly Cloudy
2:50 PM 55.4 °F - 46.4 °F 72% 29.65 in 6.2 mi SSW 6.9 mph - N/A   Scattered Clouds
3:20 PM 55.4 °F - 46.4 °F 72% 29.65 in 6.2 mi South 8.1 mph - N/A   Scattered Clouds
3:50 PM 51.8 °F - 42.8 °F 71% 29.65 in 6.2 mi SSE 12.7 mph - N/A   Mostly Cloudy
4:20 PM 50.0 °F - 46.4 °F 87% 29.65 in 6.2 mi SE 6.9 mph - N/A Rain Light Rain
4:50 PM 50.0 °F - 46.4 °F 87% 29.65 in 6.2 mi SE 4.6 mph - N/A   Scattered Clouds
5:20 PM 50.0 °F - 44.6 °F 82% 29.65 in 6.2 mi South 4.6 mph - N/A Rain Light Rain Showers
5:50 PM 48.2 °F - 44.6 °F 87% 29.65 in 6.2 mi West 3.5 mph - N/A Rain Light Rain Showers
6:20 PM 48.2 °F - 44.6 °F 87% 29.68 in 6.2 mi West 1.2 mph - N/A Rain Light Rain Showers
6:50 PM 46.4 °F - 44.6 °F 93% 29.68 in 6.2 mi WNW 2.3 mph - N/A Rain Light Rain Showers
7:20 PM 46.4 °F 45.2 °F 44.6 °F 93% 29.68 in 6.2 mi Variable 3.5 mph - N/A Rain Light Rain Showers
7:50 PM 46.4 °F - 44.6 °F 93% 29.68 in - North 1.2 mph - N/A   Clear
8:20 PM 44.6 °F - 44.6 °F 100% 29.68 in 6.2 mi North 2.3 mph - N/A Rain Light Rain Showers
8:50 PM 44.6 °F - 44.6 °F 100% 29.68 in 6.2 mi Calm Calm - N/A Rain Light Rain Showers
9:20 PM 42.8 °F - 42.8 °F 100% 29.71 in 6.2 mi North 2.3 mph - N/A Fog Shallow Fog
9:50 PM 41.0 °F - 41.0 °F 100% 29.71 in 6.2 mi Variable 2.3 mph - N/A Fog Shallow Fog
10:20 PM 41.0 °F - 41.0 °F 100% 29.71 in 6.2 mi North 1.2 mph - N/A Fog Shallow Fog
10:50 PM 39.2 °F 37.0 °F 39.2 °F 100% 29.71 in 6.2 mi WSW 3.5 mph - N/A Fog Shallow Fog
11:20 PM 39.2 °F - 39.2 °F 100% 29.71 in 6.2 mi Variable 2.3 mph - N/A Fog Patches of Fog
11:50 PM 39.2 °F - 39.2 °F 100% 29.71 in 6.2 mi WSW 2.3 mph - N/A Fog Patches of Fog